GW2419 Weather Reports


Display with metric or nautical units.
time (UTC)temp
F
wind
direction
speed
MPH
gust
MPH
rain 1hr
in
rain 24hr
in
rain mn
in
humidity
%
barometer
mb
20260503004022 63 0 1.0 5.0 0.00 0.00 0.00 36 1010.9
20260503003521 63 254 1.0 5.0 0.00 0.00 0.00 37 1010.8
20260503003048 63 0 0.0 5.0 0.00 0.00 0.00 37 1011.0
20260503002520 63 181 0.0 4.0 0.00 0.00 0.00 37 1010.9
20260503002023 63 166 0.0 3.0 0.00 0.00 0.00 36 1010.9
20260503001603 63 264 0.0 3.0 0.00 0.00 0.00 37 1011.0
20260503001019 64 262 0.0 5.0 0.00 0.00 0.00 37 1011.1
20260503000525 64 266 1.0 7.0 0.00 0.00 0.00 36 1011.2
20260503000047 64 235 0.0 7.0 0.00 0.00 0.00 35 1011.3
20260502235521 64 0 1.0 9.0 0.00 0.00 0.00 35 1011.2
20260502235022 64 234 2.0 9.0 0.00 0.00 0.00 35 1011.3
20260502234542 64 232 1.0 9.0 0.00 0.00 0.00 36 1011.3
20260502234021 64 182 2.0 9.0 0.00 0.00 0.00 34 1011.4
20260502233519 64 186 3.0 9.0 0.00 0.00 0.00 33 1011.3
20260502233035 64 123 0.0 3.0 0.00 0.00 0.00 34 1011.3
20260502232522 64 0 0.0 4.0 0.00 0.00 0.00 34 1011.2
20260502232021 64 181 1.0 4.0 0.00 0.00 0.00 33 1011.2
20260502231535 64 0 0.0 2.0 0.00 0.00 0.00 33 1011.4
20260502231022 64 0 0.0 3.0 0.00 0.00 0.00 33 1011.4
20260502230522 64 183 0.0 3.0 0.00 0.00 0.00 34 1011.4
20260502230038 64 0 0.0 2.0 0.00 0.00 0.00 36 1011.5
20260502225521 64 0 0.0 2.0 0.00 0.00 0.00 36 1011.6
20260502225023 64 0 0.0 1.0 0.00 0.00 0.00 35 1011.6
20260502224542 64 0 0.0 2.0 0.00 0.00 0.00 33 1011.7
20260502224023 64 184 0.0 5.0 0.00 0.00 0.00 32 1011.7
20260502223525 64 0 1.0 5.0 0.00 0.00 0.00 31 1011.7
20260502223039 64 259 0.0 3.0 0.00 0.00 0.00 31 1011.8
20260502222523 64 242 0.0 3.0 0.00 0.00 0.00 32 1011.9
20260502222022 64 292 0.0 4.0 0.00 0.00 0.00 31 1011.9
20260502221541 64 282 1.0 5.0 0.00 0.00 0.00 31 1011.9
20260502221022 64 203 1.0 5.0 0.00 0.00 0.00 30 1012.0
20260502220521 65 195 1.0 5.0 0.00 0.00 0.00 31 1012.0
20260502220037 65 263 1.0 7.0 0.00 0.00 0.00 32 1012.0
20260502215522 65 0 0.0 7.0 0.00 0.00 0.00 32 1012.1
20260502215021 65 0 2.0 6.0 0.00 0.00 0.00 31 1012.1
20260502214545 65 0 2.0 6.0 0.00 0.00 0.00 31 1012.2
20260502214020 65 167 2.0 4.0 0.00 0.00 0.00 31 1012.2
20260502213520 65 255 2.0 5.0 0.00 0.00 0.00 31 1012.2
20260502213043 65 179 1.0 7.0 0.00 0.00 0.00 31 1012.4
20260502212520 65 0 1.0 7.0 0.00 0.00 0.00 30 1012.4
20260502212021 66 269 2.0 11.0 0.00 0.00 0.00 30 1012.5
20260502211539 65 273 2.0 11.0 0.00 0.00 0.00 31 1012.6
20260502211021 65 265 1.0 7.0 0.00 0.00 0.00 30 1012.7
20260502210521 65 148 1.0 7.0 0.00 0.00 0.00 31 1012.7
20260502210043 65 250 2.0 7.0 0.00 0.00 0.00 32 1012.9
20260502205521 65 280 2.0 9.0 0.00 0.00 0.00 30 1013.0
20260502205022 65 176 3.0 9.0 0.00 0.00 0.00 31 1013.2
20260502204536 64 171 1.0 7.0 0.00 0.00 0.00 33 1013.3
20260502204021 64 263 1.0 7.0 0.00 0.00 0.00 33 1013.4
20260502203521 64 259 1.0 8.0 0.00 0.00 0.00 32 1013.5
20260502203038 64 160 1.0 8.0 0.00 0.00 0.00 31 1013.6
20260502202520 64 125 2.0 6.0 0.00 0.00 0.00 32 1013.7
20260502202021 63 158 2.0 6.0 0.00 0.00 0.00 31 1013.7
20260502201541 63 251 2.0 9.0 0.00 0.00 0.00 32 1013.9
20260502201021 63 220 3.0 9.0 0.00 0.00 0.00 31 1013.9
20260502200521 63 154 1.0 8.0 0.00 0.00 0.00 31 1014.2
20260502200041 63 252 1.0 8.0 0.00 0.00 0.00 32 1014.1
20260502195522 63 195 1.0 5.0 0.00 0.00 0.00 32 1014.2
20260502195020 62 248 1.0 7.0 0.00 0.00 0.00 31 1014.2
20260502194538 62 126 3.0 8.0 0.00 0.00 0.00 32 1014.4
20260502194024 61 0 3.0 8.0 0.00 0.00 0.00 33 1014.5
20260502193522 61 269 2.0 8.0 0.00 0.00 0.00 33 1014.6
20260502193041 60 0 2.0 8.0 0.00 0.00 0.00 33 1014.7
20260502192522 60 0 2.0 8.0 0.00 0.00 0.00 33 1014.9
20260502192023 60 162 1.0 11.0 0.00 0.00 0.00 33 1014.9
20260502191535 60 245 2.0 11.0 0.00 0.00 0.00 32 1015.0
20260502191022 60 252 4.0 11.0 0.00 0.00 0.00 32 1015.0
20260502190520 59 250 3.0 7.0 0.00 0.00 0.00 33 1015.2
20260502190046 59 181 1.0 6.0 0.00 0.00 0.00 33 1015.3
20260502185525 58 253 1.0 8.0 0.00 0.00 0.00 33 1015.4
20260502185058 58 292 2.0 8.0 0.00 0.00 0.00 33 1015.7
20260502121541 39 0 0.0 1.0 0.00 0.00 0.00 65 1019.1
20260502121021 38 0 0.0 1.0 0.00 0.00 0.00 67 1019.0
20260502120745 38 0 0.0 1.0 0.00 0.00 0.00 69 1019.1
20260502120303 37 0 0.0 1.0 0.00 0.00 0.00 70 1019.1
20260502115715 37 0 0.0 0.0 0.00 0.00 0.00 71 1019.1
20260502114026 36 0 0.0 0.0 0.00 0.00 0.00 72 1019.0
20260502113523 36 0 0.0 0.0 0.00 0.00 0.00 70 1019.1
20260502113042 36 0 0.0 0.0 0.00 0.00 0.00 69 1018.9
20260502112522 36 0 0.0 0.0 0.00 0.00 0.00 70 1018.9
20260502112018 36 0 0.0 0.0 0.00 0.00 0.00 70 1018.9
20260502111541 36 0 0.0 0.0 0.00 0.00 0.00 70 1018.9
20260502111019 36 0 0.0 2.0 0.00 0.00 0.00 69 1018.9
20260502110521 36 0 0.0 2.0 0.00 0.00 0.00 69 1019.0
20260502110038 36 99 0.0 2.0 0.00 0.00 0.00 70 1018.8
20260502105523 36 0 0.0 0.0 0.00 0.00 0.00 69 1018.9
20260502105021 37 0 0.0 0.0 0.00 0.00 0.00 68 1018.9
20260502104543 37 0 0.0 0.0 0.00 0.00 0.00 68 1019.1
20260502104020 37 0 0.0 0.0 0.00 0.00 0.00 67 1019.1
20260502103521 37 0 0.0 0.0 0.00 0.00 0.00 67 1019.0
20260502103041 37 0 0.0 0.0 0.00 0.00 0.00 67 1018.9
20260502102523 37 0 0.0 0.0 0.00 0.00 0.00 67 1018.9
20260502102022 37 0 0.0 0.0 0.00 0.00 0.00 66 1018.9
20260502101546 37 0 0.0 0.0 0.00 0.00 0.00 66 1018.9
20260502101019 37 0 0.0 0.0 0.00 0.00 0.00 66 1018.8
20260502100521 37 0 0.0 0.0 0.00 0.00 0.00 66 1018.8
20260502091019 39 0 0.0 0.0 0.00 0.00 0.00 64 1018.7
20260502090527 39 0 0.0 0.0 0.00 0.00 0.00 63 1018.6
20260502071020 38 0 0.0 0.0 0.00 0.00 0.00 64 1018.9
20260502070522 38 0 0.0 0.0 0.00 0.00 0.00 63 1018.9
20260502070046 38 0 0.0 0.0 0.00 0.00 0.00 64 1018.9
20260502065520 38 0 0.0 0.0 0.00 0.00 0.00 64 1019.0
20260502065020 38 0 0.0 0.0 0.00 0.00 0.00 63 1018.9
20260502064537 39 0 0.0 0.0 0.00 0.00 0.00 65 1019.1
20260502064021 39 0 0.0 0.0 0.00 0.00 0.00 64 1019.0
20260502063524 39 0 0.0 0.0 0.00 0.00 0.00 62 1019.1
20260502063042 39 0 0.0 0.0 0.00 0.00 0.00 64 1019.0
20260502062523 39 0 0.0 0.0 0.00 0.00 0.00 64 1019.2
20260502062026 39 0 0.0 0.0 0.00 0.00 0.00 65 1019.0
20260502061540 39 0 0.0 0.0 0.00 0.00 0.00 62 1019.1
20260502061023 39 0 0.0 0.0 0.00 0.00 0.00 61 1019.2
20260502060521 39 0 0.0 0.0 0.00 0.00 0.00 61 1019.2
20260502060041 39 0 0.0 0.0 0.00 0.00 0.00 62 1019.2
20260502055528 39 0 0.0 0.0 0.00 0.00 0.00 61 1019.2
20260502055022 39 0 0.0 0.0 0.00 0.00 0.00 61 1019.2
20260502054541 39 0 0.0 0.0 0.00 0.00 0.00 63 1019.3
20260502054020 39 0 0.0 0.0 0.00 0.00 0.00 62 1019.3
20260502053525 39 0 0.0 0.0 0.00 0.00 0.00 62 1019.3
20260502053058 39 0 0.0 0.0 0.00 0.00 0.00 61 1019.2
20260502052525 39 0 0.0 0.0 0.00 0.00 0.00 62 1019.3
20260502052024 39 0 0.0 0.0 0.00 0.00 0.00 62 1019.3
20260502051540 39 0 0.0 0.0 0.00 0.00 0.00 62 1019.2
20260502051023 39 0 0.0 0.0 0.00 0.00 0.00 62 1019.2
20260502050524 39 0 0.0 0.0 0.00 0.00 0.00 61 1019.1
20260502050036 39 0 0.0 0.0 0.00 0.00 0.00 63 1019.1
20260502045523 39 0 0.0 0.0 0.00 0.00 0.00 62 1019.1
20260502045025 39 0 0.0 0.0 0.00 0.00 0.00 62 1019.0
20260502044542 40 0 0.0 0.0 0.00 0.00 0.00 61 1019.0
20260502044022 40 0 0.0 0.0 0.00 0.00 0.00 62 1019.1
20260502043523 40 0 0.0 0.0 0.00 0.00 0.00 60 1019.1
20260502043043 40 0 0.0 0.0 0.00 0.00 0.00 61 1019.2
20260502042523 40 0 0.0 0.0 0.00 0.00 0.00 61 1019.2
20260502042021 40 0 0.0 0.0 0.00 0.00 0.00 58 1019.2
20260502041542 40 0 0.0 0.0 0.00 0.00 0.00 59 1019.1
20260502041021 40 0 0.0 0.0 0.00 0.00 0.00 60 1019.1
20260502040523 40 0 0.0 0.0 0.00 0.00 0.00 58 1019.2
20260502040044 41 0 0.0 0.0 0.00 0.00 0.00 60 1019.3
20260502035522 41 0 0.0 0.0 0.00 0.00 0.00 58 1019.3
20260502035021 41 0 0.0 0.0 0.00 0.00 0.00 58 1019.2
20260502034537 41 0 0.0 0.0 0.00 0.00 0.00 56 1019.3
20260502034019 41 0 0.0 0.0 0.00 0.00 0.00 57 1019.3
20260502033521 41 0 0.0 0.0 0.00 0.00 0.00 58 1019.2
20260502033034 41 0 0.0 0.0 0.00 0.00 0.00 58 1019.4
20260502032521 41 0 0.0 0.0 0.00 0.00 0.00 58 1019.3
20260502032022 42 0 0.0 0.0 0.00 0.00 0.00 56 1019.4
20260502031538 42 0 0.0 0.0 0.00 0.00 0.00 57 1019.3
20260502031022 42 0 0.0 0.0 0.00 0.00 0.00 56 1019.4
20260502030523 42 0 0.0 0.0 0.00 0.00 0.00 52 1019.3
20260502030053 42 0 0.0 0.0 0.00 0.00 0.00 51 1019.3
20260502025522 43 0 0.0 0.0 0.00 0.00 0.00 51 1019.2
20260502025021 43 0 0.0 0.0 0.00 0.00 0.00 52 1019.1
20260502024543 43 0 0.0 0.0 0.00 0.00 0.00 50 1019.2
20260502024022 43 0 0.0 0.0 0.00 0.00 0.00 50 1019.2
20260502023523 44 0 0.0 0.0 0.00 0.00 0.00 51 1019.2
20260502023052 44 0 0.0 0.0 0.00 0.00 0.00 46 1019.2
20260502022521 44 0 0.0 0.0 0.00 0.00 0.00 48 1019.2
20260502022051 45 0 0.0 0.0 0.00 0.00 0.00 49 1019.1
20260502021541 45 0 0.0 0.0 0.00 0.00 0.00 47 1019.1
20260502021023 45 0 0.0 0.0 0.00 0.00 0.00 46 1019.1
20260502020518 46 0 0.0 0.0 0.00 0.00 0.00 44 1018.9
20260502020045 46 0 0.0 0.0 0.00 0.00 0.00 45 1019.0
20260502015521 46 0 0.0 0.0 0.00 0.00 0.00 46 1018.8
20260502015023 47 0 0.0 0.0 0.00 0.00 0.00 44 1018.8
20260502014541 47 0 0.0 0.0 0.00 0.00 0.00 42 1018.7
20260502014022 47 0 0.0 0.0 0.00 0.00 0.00 41 1018.6
20260502013521 48 0 0.0 0.0 0.00 0.00 0.00 41 1018.6
20260502013040 48 0 0.0 0.0 0.00 0.00 0.00 41 1018.6
20260502012527 49 0 0.0 0.0 0.00 0.00 0.00 39 1018.6
20260502012025 49 0 0.0 0.0 0.00 0.00 0.00 37 1018.5
20260502011540 49 0 0.0 0.0 0.00 0.00 0.00 36 1018.6
20260502011021 50 0 0.0 0.0 0.00 0.00 0.00 35 1018.6
20260502010526 50 0 0.0 0.0 0.00 0.00 0.00 36 1018.6
20260502010034 50 0 0.0 0.0 0.00 0.00 0.00 36 1018.6
20260502005522 51 0 0.0 3.0 0.00 0.00 0.00 33 1018.5
20260502005019 51 0 0.0 3.0 0.00 0.00 0.00 34 1018.5
20260502004538 51 0 0.0 3.0 0.00 0.00 0.00 32 1018.6